Location: Newark
(45.5000°N, 11.4167°E)
Time: 12:36:01
(UTC+00:00)

A-11 Canister half - Pass Details

Date: 24 August 2019
Orbit: 1514 x 1686 km, 47.2° (Epoch: 15 September)

Event Time Altitude Azimuth Distance (km) Brightness Sun altitude
Rises 23:53:49 0° 293° (WNW) 4,825 11.7 -32.6°
Reaches altitude 10° 23:57:15 10° 285° (WNW) 3,861 11.1 -32.5°
Enters shadow 00:01:53 26° 262° (W) 2,827 10.1 -32.3°
Maximum altitude 00:05:43 34° 225° (SW) 2,496 - -32.2°
Drops below altitude 10° 00:14:23 10° 166° (SSE) 3,934 - -31.8°
Sets 00:17:57 0° 157° (SSE) 4,926 - -31.6°
